{"data":{"norad_id":63673,"epoch":"2026-09-20T04:45:21.717792Z","epoch_age_seconds":178668,"freshness":"STALE","line1":"1 63673U 25085K   26263.19816803  .00144155  00000+0  11074-2 0  9994","line2":"2 63673  42.9999 185.9220 0001531 257.0231 103.0465 15.70843270 80831","mean_motion":15.7084327,"eccentricity":0.0001531,"inclination_deg":42.9999,"raan_deg":185.922,"arg_perigee_deg":257.0231,"mean_anomaly_deg":103.0465,"bstar":0.0011074,"rev_number":8083,"period_min":91.670507650327,"perigee_km":355.45464457507,"apogee_km":357.5167860505,"semimajor_km":6734.6227153128,"source":"CELESTRAK","updated_at":"2026-09-21T09:00:35.058890Z"}}